DateTimeUTC,F1_A11,F1_S11,BsB_S11,BsG_S11,BsR_S11,BbsB_S11,BbsG_S11,BbsR_S11,BaB_A11,BaG_A11,BaR_A11,Tu_S11,T_S11,Uu_S11,U_S11,P_S11,T1_A11
2021-04-27T16:00:00Z,00040200,20000000,,,,,,,0000.71,0000.11,0000.51,20.9,27.4,07.1,04.8,0684.2,31.3
2021-04-27T16:01:00Z,00040200,20000000,,,,,,,0000.31,0000.38,0000.02,20.9,27.4,07.1,04.8,0684.2,31.3
2021-04-27T16:02:00Z,00040200,20000000,,,,,,,0000.25,0000.10,0000.35,20.9,27.4,07.4,05.0,0684.2,31.3
2021-04-27T16:03:00Z,00040200,60000000,,,,,,,0000.57,0000.15,0000.26,20.9,27.5,07.4,05.0,0684.2,31.3
2021-04-27T16:04:00Z,00040200,40000000,0000.97,0000.96,0000.50,0000.08,0000.04,0000.07,-000.40,-000.11,-000.44,21.0,27.3,07.5,05.1,0685.1,31.3
2021-04-27T16:05:00Z,00040200,00000000,0000.96,0000.75,0000.69,-000.20,0000.35,0000.20,0000.42,0000.39,0000.58,21.0,27.3,07.2,04.9,0685.2,31.3
2021-04-27T16:06:00Z,00040200,00000000,0000.92,0000.98,0000.82,0000.45,0000.19,-000.19,0000.40,0000.86,0000.28,21.0,27.3,07.4,05.1,0685.2,31.3
2021-04-27T16:07:00Z,00040200,00000000,0001.10,0000.85,0000.77,0000.48,0000.25,0000.29,0000.68,0000.38,0000.24,21.1,27.3,07.4,05.1,0685.2,31.3
2021-04-27T16:08:00Z,00040200,00000000,0001.46,0000.77,0000.83,0000.31,0000.07,-000.08,0000.61,0000.16,0000.30,21.1,27.3,07.4,05.1,0685.2,31.3
2021-04-27T16:09:00Z,00040200,00000000,0001.75,0000.55,0000.64,-000.06,0000.02,-000.05,0000.08,0000.01,0000.35,21.1,27.3,07.3,05.0,0685.2,31.3
2021-04-27T16:10:00Z,00040200,00000000,0000.94,0000.78,0000.71,0000.25,0000.27,-000.16,-000.09,0000.35,0000.04,21.1,27.3,07.2,05.0,0685.2,31.3
2021-04-27T16:11:00Z,00040200,00000000,0001.11,0001.01,0000.51,0000.10,-000.03,0000.02,-000.08,-000.17,-000.02,21.1,27.3,06.9,04.8,0685.2,31.3
2021-04-27T16:12:00Z,00040200,00000000,0001.02,0000.46,0001.06,-000.23,0000.33,0000.00,0000.30,0000.02,-000.27,21.1,27.3,06.8,04.7,0685.2,31.3
2021-04-27T16:13:00Z,00040200,00000000,0001.09,0000.93,0000.82,0000.25,0000.58,0000.29,0000.00,0000.58,0000.51,21.1,27.3,06.7,04.6,0685.2,31.3
2021-04-27T16:14:00Z,00040200,00000000,0001.46,0000.66,0000.83,0000.29,0000.31,0000.15,0000.19,-000.01,0000.03,21.1,27.3,06.6,04.6,0685.3,31.4
2021-04-27T16:15:00Z,00040200,00000000,0002.09,0000.94,0000.48,0000.67,0000.29,-000.07,0000.35,0000.69,0000.67,21.1,27.3,06.7,04.6,0685.3,31.4
2021-04-27T16:16:00Z,00040200,00000000,0000.88,0000.78,0001.14,0000.24,0000.33,0000.22,0000.53,0000.02,0000.10,21.1,27.3,06.7,04.6,0685.3,31.4
2021-04-27T16:17:00Z,00040200,00000000,0001.27,0000.78,0000.65,0000.73,0000.08,0000.01,0000.67,0000.57,0000.30,21.1,27.3,06.7,04.6,0685.3,31.4
2021-04-27T16:18:00Z,00040200,00000000,0001.21,0000.67,0000.65,0000.54,0000.45,-000.17,0000.41,0000.41,0000.47,21.1,27.3,06.8,04.6,0685.3,31.4
2021-04-27T16:19:00Z,00040200,00000000,0001.25,0000.80,0000.62,0000.84,0000.06,0000.02,0000.05,-000.06,-000.07,21.1,27.4,06.6,04.6,0685.3,31.4
2021-04-27T16:20:00Z,00040200,00000000,0000.69,0000.79,0000.33,0000.39,0000.17,-000.04,0000.44,0000.39,0000.43,21.1,27.4,06.6,04.6,0685.3,31.4
2021-04-27T16:21:00Z,00040200,00000000,0001.58,0000.91,0000.56,0000.03,0000.21,-000.09,0000.11,0000.06,-000.01,21.2,27.4,06.5,04.5,0685.3,31.4
2021-04-27T16:22:00Z,00040200,00000000,0001.26,0001.01,0000.82,0000.74,0000.31,-000.14,0000.51,0000.81,0000.33,21.2,27.4,06.5,04.5,0685.3,31.4
2021-04-27T16:23:00Z,00040200,00000000,0000.61,0000.75,0000.89,0000.49,0000.28,0000.18,0000.04,0000.13,0000.23,21.2,27.4,06.4,04.4,0685.3,31.4
2021-04-27T16:24:00Z,00040200,00000000,0001.02,0000.72,0000.69,0000.25,0000.44,-000.02,0000.25,0000.41,0000.28,21.2,27.4,06.4,04.4,0685.3,31.4
2021-04-27T16:25:00Z,00040200,00000000,0001.34,0000.89,0000.84,0000.11,0000.28,0000.31,0000.48,0000.26,0000.00,21.2,27.4,06.4,04.4,0685.3,31.3
2021-04-27T16:26:00Z,00040200,00000000,0001.13,0000.88,0000.64,0000.61,0000.26,-000.01,0000.35,0000.45,0000.29,21.2,27.4,06.4,04.4,0685.3,31.3
2021-04-27T16:27:00Z,00040200,00000000,0001.00,0001.14,0000.82,0000.15,0000.34,0000.32,0000.57,-000.03,0000.47,21.2,27.4,06.4,04.4,0685.3,31.3
2021-04-27T16:28:00Z,00040200,00000000,0000.95,0000.82,0000.70,0000.32,0000.12,0000.04,0000.50,0000.38,0000.42,21.1,27.4,06.4,04.4,0685.3,31.3
2021-04-27T16:29:00Z,00040200,00000000,0001.26,0001.25,0000.65,0000.44,0000.15,0000.29,0000.32,0000.33,0000.38,21.2,27.4,06.3,04.3,0685.3,31.3
2021-04-27T16:30:00Z,00040200,00000000,0000.94,0001.05,0000.57,0000.59,0000.07,-000.08,0000.39,0000.90,-000.08,21.2,27.4,06.4,04.4,0685.3,31.3
2021-04-27T16:31:00Z,00040200,00000000,0001.57,0000.66,0000.73,0000.13,0000.33,0000.11,0000.36,-000.03,0000.20,21.2,27.4,06.3,04.4,0685.3,31.3
2021-04-27T16:32:00Z,00040200,00000000,0001.10,0000.72,0000.58,0000.27,0000.06,0000.09,0000.51,0000.60,0000.51,21.2,27.4,06.4,04.4,0685.3,31.3
2021-04-27T16:33:00Z,00040200,00000000,0001.46,0000.94,0000.77,0000.21,0000.04,0000.32,0000.45,0000.44,0000.34,21.1,27.4,06.3,04.4,0685.3,31.3
2021-04-27T16:34:00Z,00040200,00000000,0001.28,0001.20,0000.68,-000.02,0000.09,-000.30,0000.41,0000.25,0000.10,21.1,27.4,06.4,04.4,0685.3,31.3
2021-04-27T16:35:00Z,00040200,00000000,0001.48,0000.95,0000.66,0000.22,0000.22,-000.06,0000.30,0000.44,0000.27,21.1,27.4,06.4,04.4,0685.3,31.3
2021-04-27T16:36:00Z,00040200,00000000,0001.50,0000.93,0000.81,0000.49,0000.31,0000.04,0000.29,0000.16,0000.23,21.2,27.4,06.3,04.4,0685.3,31.4
2021-04-27T16:37:00Z,00040200,00000000,0001.07,0000.73,0000.76,0000.42,0000.15,-000.00,0000.78,0000.64,0000.52,21.2,27.4,06.3,04.3,0685.3,31.4
2021-04-27T16:38:00Z,00040200,00000000,0001.22,0001.04,0000.65,0000.39,0000.16,-000.09,0000.11,0000.20,0000.20,21.2,27.4,06.4,04.4,0685.3,31.3
2021-04-27T16:39:00Z,00040200,00000000,0000.53,0000.89,0000.78,-000.08,-000.04,0000.19,0000.49,0000.47,0000.49,21.2,27.4,06.3,04.3,0685.3,31.3
2021-04-27T16:40:00Z,00040200,00000000,0000.65,0000.60,0000.41,0000.58,0000.01,-000.21,0000.72,0000.61,0000.13,21.1,27.4,06.4,04.4,0685.3,31.3
2021-04-27T16:41:00Z,00040200,00000000,0001.58,0001.02,0000.87,0001.02,0000.22,0000.02,0000.50,0000.23,0000.60,21.2,27.4,06.5,04.5,0685.3,31.3
2021-04-27T16:42:00Z,00040200,00000000,0001.41,0000.85,0000.45,0000.20,0000.23,-000.26,0000.58,0000.84,0000.41,21.2,27.4,06.6,04.5,0685.3,31.3
2021-04-27T16:43:00Z,00040200,00000000,0001.11,0000.51,0000.64,0000.29,0000.03,0000.31,0001.05,0000.82,0000.50,21.2,27.4,06.8,04.6,0685.2,31.3
2021-04-27T16:44:00Z,00040200,00000000,0000.80,0000.42,0000.96,-000.14,0000.21,0000.03,0000.70,0000.43,0000.56,21.2,27.4,07.0,04.8,0685.2,31.3
2021-04-27T16:45:00Z,00040200,00000000,0000.55,0001.04,0000.60,0000.73,0000.19,-000.00,0000.11,0000.51,0000.08,21.2,27.4,07.0,04.8,0685.2,31.3
2021-04-27T16:46:00Z,00040200,00000000,0001.50,0000.77,0000.54,0000.03,0000.39,-000.21,0000.71,0000.34,0000.73,21.2,27.4,06.9,04.8,0685.2,31.4
2021-04-27T16:47:00Z,00040200,00000000,0000.80,0000.70,0000.94,0000.36,0000.21,0000.10,0000.10,0000.34,0000.03,21.2,27.4,07.1,04.9,0685.2,31.4
2021-04-27T16:48:00Z,00040200,00000000,0001.40,0000.74,0000.63,0000.33,-000.02,-000.21,0000.39,0000.15,0000.08,21.2,27.4,07.0,04.8,0685.3,31.4
2021-04-27T16:49:00Z,00040200,00000000,0001.01,0000.73,0001.08,0000.14,0000.41,0000.16,0000.34,0000.14,0000.51,21.2,27.4,07.0,04.8,0685.3,31.4
2021-04-27T16:50:00Z,00040200,00000000,0001.82,0000.85,0000.30,0000.14,0000.05,-000.45,0000.26,0000.61,0000.32,21.2,27.4,06.9,04.7,0685.2,31.4
2021-04-27T16:51:00Z,00040200,00000000,0001.40,0001.04,0000.79,0000.37,-000.05,0000.30,0000.17,0000.06,-000.27,21.2,27.4,06.8,04.7,0685.2,31.4
2021-04-27T16:52:00Z,00040200,00000000,0001.12,0000.85,0000.60,0000.53,0000.49,-000.19,-000.02,0000.06,0000.10,21.2,27.4,06.6,04.6,0685.2,31.4
2021-04-27T16:53:00Z,00040200,00000000,0001.22,0000.87,0000.73,0000.14,0000.29,0000.38,0000.29,0000.18,0000.75,21.2,27.4,06.5,04.5,0685.2,31.4
2021-04-27T16:54:00Z,00040200,00000000,0001.58,0000.57,0000.51,0000.42,0000.30,-000.10,-000.06,-000.19,-000.39,21.2,27.4,06.4,04.4,0685.2,31.4
2021-04-27T16:55:00Z,00040200,00000000,0001.22,0000.78,0000.60,0000.47,0000.05,0000.23,0000.44,0000.62,0000.46,21.2,27.4,06.4,04.4,0685.2,31.4
2021-04-27T16:56:00Z,00040200,00000000,0000.98,0000.84,0000.55,0000.24,0000.27,0000.27,0000.39,0000.33,-000.04,21.2,27.4,06.3,04.3,0685.2,31.4
2021-04-27T16:57:00Z,00040200,40000000,,,,,,,0000.26,0000.54,0000.15,21.3,27.5,06.7,04.6,0685.3,31.4
2021-04-27T16:58:00Z,00040200,60000000,,,,,,,0000.11,-000.41,-000.00,21.0,27.6,06.5,04.4,0684.2,31.4
2021-04-27T16:59:00Z,00040200,20000000,,,,,,,-000.57,-000.24,-000.29,21.0,27.7,06.4,04.3,0684.2,31.4
